Weather History for KMIW - August, 2013

Change the Weather History Date:

Tuesday, August 20, 2013

  Actual Average Record
Temperature  
Mean Temperature 77 °F 70 °F  
Max Temperature 88 °F 81 °F 96 °F (2003)
Min Temperature 65 °F 60 °F 48 °F (2012)
Degree Days  
Heating Degree Days 0 0  
Month to date heating degree days 6 2  
Since 1 June heating degree days 58 36  
Since 1 July heating degree days 21 8  
Cooling Degree Days 12 6  
Month to date cooling degree days 79 136  
Year to date cooling degree days 545 602  
Since 1 June cooling degree days 484 552  
Growing Degree Days 26 (Base 50)    
Moisture  
Dew Point 65 °F    
Average Humidity 69    
Maximum Humidity 87    
Minimum Humidity 50    
Precipitation  
Precipitation 0.00 in 0.12 in 0.95 in (2007)
Month to date precipitation 0.10 2.74  
Sea Level Pressure  
Sea Level Pressure 29.97 in    
Wind  
Wind Speed 10 mph (South)    
Max Wind Speed 20 mph    
Max Gust Speed 25 mph    
Visibility 10 miles    
Events      
T = Trace of Precipitation, MM = Missing Value Source: NWS Daily Summary

Daily Weather History Graph

Daily Weather History Graph

Search for Another Location

Airport or City:

Trip Planner

Search our weather history database for the weather conditions in past years. The results will help you decide how hot, cold, wet, or windy it might be!

Date:

Astronomy

Aug. 20, 2013 Rise Set
Actual Time 6:24 AM CDT 8:04 PM CDT
Civil Twilight 5:55 AM CDT 8:33 PM CDT
Nautical Twilight 5:19 AM CDT 9:09 PM CDT
Astronomical Twilight 4:40 AM CDT 9:47 PM CDT
Moon 7:34 PM CDT (8/20) 5:55 AM CDT (8/20)
Length of Visible Light 14h 38m
Length of Day
13h 39m
Full, 100% of the Moon is Illuminated
Aug 20
Full
Aug 20
Full
Aug 28
Last Quarter
Sep 5
New
Sep 12
First Quarter

Hourly Weather History & Observations

Time (CDT) Temp. Heat Index Dew Point Humidity Pressure Visibility Wind Dir Wind Speed Gust Speed Precip Events Conditions
12:53 AM 68.0 °F - 61.0 °F 78% 29.98 in 10.0 mi South 3.5 mph - N/A   Scattered Clouds
1:53 AM 66.9 °F - 60.1 °F 79% 29.98 in 10.0 mi South 4.6 mph - N/A   Scattered Clouds
2:53 AM 66.9 °F - 60.1 °F 79% 29.98 in 10.0 mi SSE 5.8 mph - N/A   Partly Cloudy
3:53 AM 66.0 °F - 61.0 °F 84% 29.98 in 10.0 mi SSE 4.6 mph - N/A   Mostly Cloudy
4:53 AM 66.0 °F - 61.0 °F 84% 29.98 in 10.0 mi SSE 3.5 mph - N/A   Overcast
5:53 AM 66.0 °F - 61.0 °F 84% 29.98 in 10.0 mi SSE 5.8 mph - N/A   Mostly Cloudy
6:53 AM 66.0 °F - 62.1 °F 87% 30.00 in 10.0 mi SE 5.8 mph - N/A   Mostly Cloudy
7:53 AM 66.9 °F - 62.1 °F 84% 30.00 in 10.0 mi SSE 8.1 mph - N/A   Mostly Cloudy
8:53 AM 73.9 °F - 64.9 °F 73% 30.00 in 10.0 mi South 12.7 mph - N/A   Scattered Clouds
9:53 AM 75.9 °F - 66.0 °F 71% 30.00 in 10.0 mi South 11.5 mph - N/A   Overcast
10:53 AM 80.1 °F 82.3 °F 66.9 °F 64% 29.99 in 10.0 mi South 12.7 mph - N/A   Scattered Clouds
11:53 AM 82.9 °F 85.8 °F 68.0 °F 60% 29.99 in 10.0 mi South 13.8 mph 19.6 mph N/A   Mostly Cloudy
12:53 PM 84.0 °F 87.0 °F 68.0 °F 58% 29.98 in 10.0 mi South 13.8 mph 20.7 mph N/A   Clear
1:53 PM 86.0 °F 89.4 °F 68.0 °F 55% 29.96 in 10.0 mi South 16.1 mph 23.0 mph N/A   Clear
2:53 PM 87.1 °F 89.9 °F 66.9 °F 51% 29.95 in 10.0 mi South 16.1 mph 25.3 mph N/A   Clear
3:53 PM 87.1 °F 89.9 °F 66.9 °F 51% 29.94 in 10.0 mi SSW 17.3 mph 23.0 mph N/A   Clear
4:53 PM 87.1 °F 89.9 °F 66.9 °F 51% 29.93 in 10.0 mi South 15.0 mph 24.2 mph N/A   Partly Cloudy
5:53 PM 86.0 °F 88.8 °F 66.9 °F 53% 29.93 in 10.0 mi South 11.5 mph - N/A   Partly Cloudy
6:53 PM 84.0 °F 86.3 °F 66.0 °F 55% 29.93 in 10.0 mi South 15.0 mph - N/A   Clear
7:53 PM 81.0 °F 83.0 °F 66.0 °F 60% 29.93 in 10.0 mi South 8.1 mph - N/A   Partly Cloudy
8:53 PM 78.1 °F - 66.0 °F 66% 29.94 in 10.0 mi SSE 6.9 mph - N/A   Partly Cloudy
9:53 PM 75.9 °F - 66.9 °F 74% 29.95 in 10.0 mi SSE 9.2 mph - N/A   Clear
10:53 PM 75.0 °F - 66.0 °F 73% 29.96 in 10.0 mi SSE 6.9 mph - N/A   Partly Cloudy
11:53 PM 72.0 °F - 64.9 °F 78% 29.96 in 10.0 mi South 8.1 mph - N/A   Clear